Location: Batignolles
(48.8869°N, 2.3204°E)
Time: 21:46:40
(UTC+00:00)

Daily predictions for brighter satellites

Satellite Brightness Start Highest point End
(mag) Time Altitude Azimuth Time Altitude Azimuth Time Altitude Azimuth
SME Rocket 3.6 17:10:01 10° NNE 17:14:13 89° WNW 17:20:07 10° SSW
NOSS 3-1 (C) 4.3 17:10:17 10° SSE 17:14:31 25° ESE 17:19:16 10° ENE
PSLV R/B 3.8 17:10:52 10° SSE 17:14:52 70° ENE 17:18:48 10° N
CZ-4B R/B 4.5 17:11:03 10° S 17:15:12 45° W 17:19:31 10° NNW
Cosmos 1980 Rocket 2.2 17:11:27 10° SSW 17:17:07 81° ESE 17:22:51 10° NNE
Cosmos 2227 4.3 17:13:48 10° NNW 17:19:34 66° ENE 17:25:17 10° SE
Cosmos 2369 3.9 17:14:16 10° SSW 17:19:57 78° WNW 17:25:41 10° NNE
Okean O Rocket 2.1 17:16:09 10° SE 17:20:07 36° ENE 17:24:08 10° N
PAYLOAD B 4.2 17:15:37 10° SSE 17:21:08 73° ENE 17:26:43 10° NNW
SL-8 R/B 4.1 17:17:07 10° SW 17:21:47 54° SSE 17:26:28 10° E
X-37B 1.6 17:22:15 10° WSW 17:24:58 36° S 17:27:40 10° ESE
CZ-2C R/B 3.4 17:20:01 10° NNE 17:25:00 32° E 17:29:52 10° SSE
Lacrosse 4 Rocket 2.2 17:24:01 10° NNW 17:27:57 33° NE 17:31:55 10° ESE
Okean 1 Rocket 3.8 17:24:12 10° SSW 17:28:29 57° WNW 17:32:48 10° N
Meteor 1-4 Rocket 4.2 17:27:49 10° ESE 17:29:38 14° E 17:31:25 10° ENE
SMAP 3.7 17:25:54 10° S 17:30:30 61° WSW 17:35:08 10° NNW
Cosmos 1892 4.4 17:28:38 10° NNE 17:30:46 14° ENE 17:32:53 10° E
Cosmos 1328 4.1 17:27:07 10° N 17:31:01 46° ENE 17:34:55 10° SSE
Cosmos 371 Rocket 3.9 17:28:13 10° S 17:32:39 36° ESE 17:37:08 10° NE
Cosmos 1697 Rocket 3.7 17:27:16 10° SW 17:32:42 47° NW 17:38:10 10° NNE
deb Chang Zheng 4 3.4 17:29:01 10° SSE 17:33:11 71° ENE 17:37:25 10° N
CZ-2D R/B 3.2 17:29:25 10° SSE 17:33:16 76° ENE 17:37:09 10° N
Cosmos 2123 Rocket 4.1 17:29:08 10° N 17:35:21 55° ENE 17:41:31 10° SSE
Okean 1-7 Rocket 3.8 17:31:41 10° N 17:35:58 48° ENE 17:40:17 10° SSE
COSMO-SKYMED 1 3.0 17:33:45 10° NNE 17:37:53 40° E 17:41:58 10° SSE
CZ-4C R/B 3.9 17:36:58 10° NE 17:39:49 25° E 17:42:35 10° SSE
Okean-O 4.1 17:39:01 11° E 17:41:49 18° ENE 17:44:51 10° NNE
Cosmos 1953 2.4 17:37:52 10° S 17:41:55 84° WNW 17:46:01 10° N
Cosmos 1908 3.6 17:40:03 10° SSW 17:43:54 69° W 17:47:46 10° N
Cosmos 1844 Rocket 3.4 17:39:20 10° NNW 17:44:24 34° NE 17:49:18 11° ESE
Cosmos 1892 Rocket 3.9 17:40:30 10° NNW 17:44:57 74° W 17:49:22 10° S
Cosmos 839 Rocket 4.4 17:38:48 10° NW 17:46:46 65° NE 17:53:14 10° SE
Tiangong 3.0 17:44:19 10° SW 17:46:49 21° S 17:49:04 11° SE
Iridium 4 Rocket 3.4 17:43:13 10° N 17:47:44 55° E 17:52:39 10° SSE
SL-08 RB Rocket 4.2 17:43:57 10° SE 17:48:09 38° ENE 17:52:27 10° N
Cosmos 1408 3.7 17:56:37 10° NNE 17:59:35 23° ENE 18:00:10 22° E
Meteor 2-10 Rocket 4.1 17:55:23 10° SSE 18:00:25 36° E 18:05:17 10° NNE
Cosmos 2278 4.1 17:55:18 10° SW 18:00:57 66° WNW 18:06:39 10° NNE
SKYMED 3 4.5 17:57:35 10° NNE 18:01:57 71° ESE 18:06:17 10° S
Cosmos 1758 Rocket 4.3 17:58:42 10° N 18:02:31 29° ENE 18:05:22 15° SE
Cosmos 44 4.5 17:58:51 10° S 18:03:19 27° ESE 18:05:39 20° ENE
Cosmos 2278 Rocket 4.0 18:02:10 10° N 18:05:08 14° NNE 18:06:51 13° NE
NOSS 8 (E) 4.1 18:03:06 10° SSW 18:06:27 63° SE 18:07:57 26° NE
CZ-4 R/B 1.6 18:03:33 10° SE 18:07:24 46° ENE 18:11:22 10° N
SL-19 R/B 4.4 18:02:34 10° NNE 18:08:19 84° WNW 18:13:52 10° SSW
Cosmos 1626 Rocket 3.4 18:04:18 10° N 18:08:37 70° ENE 18:12:55 10° SSE
USA 215 3.5 18:05:34 12° NE 18:11:37 66° NNW 18:18:05 10° WSW
NOSS 2-3 (E) 3.6 18:08:33 10° SSW 18:12:28 54° SE 18:15:31 19° NE
ATLAS 5 CENTAUR R/B 2.4 18:09:48 10° WSW 18:13:36 44° NW 18:17:59 10° NE
SL-16 R/B 2.2 18:08:13 10° SSW 18:13:48 66° ESE 18:19:27 10° NNE
H-2A R/B 2.8 18:08:32 10° S 18:13:52 60° W 18:19:17 10° NNW
Cosmos 1300 2.6 18:11:49 10° S 18:15:37 90° NNW 18:19:26 10° N
H-2A R/B 2.4 18:13:04 10° SSE 18:17:20 72° ENE 18:21:28 10° N
USA 229 DEB 3.9 18:11:28 10° S 18:17:23 42° ESE 18:22:04 17° ENE
USA 229 3.9 18:11:36 10° S 18:17:29 41° ESE 18:22:06 18° ENE
IRAS Rocket 4.3 18:13:12 10° NNE 18:18:38 53° ESE 18:24:00 10° S
Cosmos 1825 3.8 18:16:33 10° NNE 18:18:15 19° NE 18:18:15 19° NE
Cosmos 1605 Rocket 3.9 18:18:27 10° S 18:24:39 68° E 18:31:00 10° NNE
SKYMED 2 3.9 18:21:40 10° N 18:26:00 68° WNW 18:30:18 10° SSW
Cosmos 2322 Rocket 2.1 18:21:12 10° SSW 18:26:44 64° ESE 18:32:18 10° NNE
Cosmos 304 Rocket 3.7 18:22:47 10° S 18:27:31 65° ESE 18:32:18 10° NNE
Cosmos 220 Rocket 4.2 18:23:58 10° S 18:28:12 47° ESE 18:30:17 26° NE
NOSS 8 (F) 4.4 18:27:32 10° SW 18:30:50 67° NW 18:31:43 40° NNE
Cosmos 1447 Rocket 4.4 18:25:57 10° N 18:32:05 67° ENE 18:38:11 10° SSE
YAOGAN 1 2.4 18:28:26 10° SSE 18:32:45 84° ENE 18:37:07 10° NNW
Feng Yun 1-1 Rocket 4.4 18:27:41 10° SSE 18:33:17 81° WSW 18:39:04 10° NNW
Cosmos 1844 3.8 18:27:53 10° NNW 18:33:39 60° ENE 18:36:47 27° SE
H-2A R/B 2.2 18:33:54 39° ENE 18:34:38 44° E 18:38:39 10° S
ATLAS 3B R/B 4.1 18:31:10 10° W 18:37:05 32° NNW 18:43:15 10° NE
Cosmos 2360 Rocket 2.4 18:31:45 10° S 18:37:07 48° ESE 18:40:24 23° NE
NOSS 3-1 (A) 3.3 18:34:31 10° SSW 18:39:41 55° ESE 18:42:42 28° ENE
Cosmos 2333 Rocket 3.8 18:36:08 10° SSE 18:37:49 17° SE 18:37:49 17° SE
HJ-1C 3.2 18:41:53 56° S 18:42:30 86° W 18:45:47 10° NNW
BREEZE-M R/B 2.8 18:40:51 10° W 18:44:14 64° SSW 18:45:40 38° SE
Cosmos 332 Rocket 3.8 18:41:08 10° SSW 18:46:02 87° WNW 18:50:57 10° NNE
ARGOS 4.0 18:41:47 10° S 18:47:02 51° W 18:52:20 10° NNW
BREEZE-M DEB (TANK) 4.3 18:36:10 10° W 18:49:29 85° N 18:51:01 45° E
MetOp-A 4.0 18:46:55 22° SSE 18:50:26 70° ENE 18:55:47 10° N
Cosmos 2251 Rocket 3.6 18:46:11 10° NNW 18:51:28 78° WSW 18:55:31 17° SSE
In-Cosmos 22 Rocket 4.1 18:48:24 10° NNW 18:53:44 78° W 18:59:02 10° S
Cosmos 407 Rocket 3.5 18:50:38 10° NNW 18:55:55 60° ENE 18:56:49 52° ESE
CENTAUR R/B 4.1 18:49:37 10° NW 18:56:10 31° NNE 18:59:22 24° NE
Okean O Rocket 3.8 18:52:52 10° SSW 18:56:33 27° W 19:00:16 10° NW
Cosmos 1140 Rocket 3.4 18:54:23 10° NNW 18:59:31 60° ENE 19:00:02 57° E
Cosmos 2344 4.4 18:50:56 10° NW 18:59:59 81° SW 19:11:48 13° SSE
NOSS 2-3 (D) 3.7 18:55:55 10° SW 19:00:00 70° NW 19:01:32 40° NNE
X-37B 3.0 18:58:09 10° WSW 18:59:34 16° SW 18:59:34 16° SW
Cosmos 1980 Rocket 4.3 18:57:18 10° W 19:01:50 24° NW 19:06:23 10° N
CSL-04 Debris 4.0 19:00:03 30° SSE 19:02:50 82° ENE 19:08:17 10° NNW
DMSP B5D1-3 4.4 18:58:57 10° NNE 19:04:08 88° WNW 19:09:17 10° SSW
SL-8 R/B 3.5 18:59:23 10° W 19:04:12 87° S 19:04:36 75° E
Meteor 1-4 Rocket 3.6 19:00:53 10° SSW 19:04:12 42° WNW 19:07:14 12° N
NOSS 3-1 (C) 3.5 18:59:16 10° SW 19:04:38 68° NW 19:08:48 22° NE
CZ-2C R/B 3.8 19:00:07 10° N 19:05:26 46° WNW 19:10:40 10° SW
Lacrosse 4 Rocket 2.9 19:02:40 10° NW 19:06:38 35° WSW 19:09:21 18° S
Cosmos 1892 3.4 19:03:04 10° NNW 19:06:46 52° W 19:07:58 35° SSW
Cosmos 1943 Rocket 4.3 19:04:48 10° N 19:06:49 12° NNE 19:06:49 12° NNE
Cosmos 1023 Rocket 4.3 19:05:59 10° NNW 19:11:13 76° ENE 19:11:36 72° ESE
NOSS 2-3 (C) 4.2 19:08:36 10° WSW 19:12:41 55° NW 19:14:02 40° NNE
CSL-04 Rocket 3.6 19:12:58 38° SSE 19:15:17 88° W 19:20:53 10° NNW
Cosmos 2346 Rocket 4.4 19:10:30 10° N 19:16:45 65° ENE 19:17:31 60° ESE
Okean-O 3.0 19:16:36 42° SSW 19:17:52 61° W 19:22:17 10° NNW
Orbus 7S? 4.1 19:10:42 10° NW 19:18:41 61° SW 19:19:15 56° S
Tiangong 4.1 19:20:48 10° WSW 19:21:18 12° SW 19:21:18 12° SW
ATLAS 5 CENTAUR R/B 4.5 19:08:42 10° W 19:27:11 39° NNW 19:30:31 24° NNE
Meteor 2-11 Rocket 4.4 19:21:01 10° S 19:27:11 85° W 19:33:23 10° N
Cosmos 1844 Rocket 3.4 19:23:08 10° NW 19:28:29 49° WSW 19:31:01 29° SSW
Resurs 01 Rocket 4.2 19:33:30 11° N 19:33:30 11° N 19:33:38 10° N
Cosmos 1825 Rocket 4.4 19:29:54 10° NNW 19:33:36 49° WNW 19:33:36 49° WNW
Cosmos 1190 Rocket 4.3 19:33:40 10° NNW 19:37:59 62° NNW 19:37:59 62° NNW
CZ-4 R/B 4.0 19:39:46 10° SW 19:42:39 19° W 19:45:35 10° NW
Cosmos 44 3.8 19:38:52 10° SW 19:44:08 63° NW 19:44:08 63° NW
Cosmos 1459 Rocket 3.9 19:40:06 10° S 19:46:19 83° W 19:52:29 10° N
Cosmos 2100 Rocket 4.0 19:40:03 10° SSW 19:46:21 78° W 19:52:47 10° N
Cosmos 2278 Rocket 3.3 19:45:09 10° NNW 19:48:42 35° N 19:48:42 35° N
USA 215 3.9 19:52:55 40° NNE 19:54:07 44° N 20:00:15 10° WNW
SL-16 R/B 4.0 19:53:36 10° WSW 19:58:24 28° NW 20:03:15 10° NNE
ATLAS 5 CENTAUR R/B 4.0 19:56:35 10° NW 19:59:27 17° NNW 19:59:31 17° NNW
Cosmos 2173 Rocket 4.2 19:54:03 10° SSW 20:00:12 66° WNW 20:06:30 10° N
USA 229 DEB 4.1 20:01:50 10° WSW 20:08:10 55° NW 20:09:32 47° N
USA 229 4.1 20:01:56 10° WSW 20:08:16 55° NW 20:09:35 48° N
H-2A R/B 4.4 20:11:03 21° WNW 20:11:03 21° WNW 20:13:32 10° WSW
Cosmos 2322 Rocket 4.0 20:06:26 10° WSW 20:11:14 28° NW 20:14:52 15° N
Cosmos 2360 Rocket 3.6 20:16:09 10° WSW 20:21:18 35° NW 20:22:14 33° NNW
Cosmos 2333 Rocket 4.5 20:19:05 10° SW 20:19:57 15° SW 20:19:57 15° SW
ATLAS 3B R/B 4.3 20:24:34 10° NW 20:29:59 24° N 20:30:40 23° NNE
CENTAUR R/B 3.6 20:40:34 10° NW 20:46:32 52° N 20:46:32 52° N
